TimeCDT,TemperatureF,Dew PointF,Humidity,Sea Level PressureIn,VisibilityMPH,Wind Direction,Wind SpeedMPH,Gust SpeedMPH,PrecipitationIn,Events,Conditions,WindDirDegrees,DateUTC
12:52 AM,55.0,48.9,80,30.00,10.0,SSE,4.6,-,N/A,,Clear,150,2013-05-08 05:52:00
1:52 AM,55.9,50.0,80,29.99,10.0,SSE,3.5,-,N/A,,Partly Cloudy,150,2013-05-08 06:52:00
2:52 AM,55.0,50.0,83,29.99,10.0,SSE,8.1,-,N/A,,Clear,160,2013-05-08 07:52:00
3:52 AM,54.0,50.0,86,29.98,10.0,SE,9.2,-,N/A,,Clear,140,2013-05-08 08:52:00
4:52 AM,53.1,48.9,86,29.98,10.0,SSE,6.9,-,N/A,,Clear,150,2013-05-08 09:52:00
5:52 AM,53.1,48.9,86,29.99,10.0,SE,8.1,-,N/A,,Clear,140,2013-05-08 10:52:00
6:52 AM,54.0,50.0,86,30.01,10.0,SSE,6.9,-,N/A,,Clear,150,2013-05-08 11:52:00
7:52 AM,61.0,54.0,78,30.02,10.0,SSE,5.8,-,N/A,,Mostly Cloudy,160,2013-05-08 12:52:00
8:52 AM,64.0,55.0,73,30.04,10.0,South,5.8,-,N/A,,Overcast,170,2013-05-08 13:52:00
9:52 AM,66.9,55.9,68,30.05,10.0,South,5.8,-,N/A,,Overcast,180,2013-05-08 14:52:00
10:52 AM,69.1,55.9,63,30.06,10.0,Calm,Calm,-,N/A,,Overcast,0,2013-05-08 15:52:00
11:52 AM,69.1,54.0,58,30.06,10.0,Calm,Calm,-,0.00,,Overcast,0,2013-05-08 16:52:00
12:52 PM,68.0,55.0,63,30.06,10.0,WNW,4.6,-,0.00,Rain,Light Rain,300,2013-05-08 17:52:00
1:52 PM,64.9,57.0,75,30.08,10.0,West,4.6,-,0.00,,Overcast,280,2013-05-08 18:52:00
2:31 PM,63.0,57.0,81,29.98,10.0,ESE,13.8,-,0.04,Rain,Light Rain,120,2013-05-08 19:31:00
2:52 PM,64.0,57.9,80,29.97,10.0,SSE,11.5,-,0.04,,Partly Cloudy,150,2013-05-08 19:52:00
3:52 PM,66.0,57.0,73,29.98,10.0,SSE,6.9,-,N/A,,Overcast,160,2013-05-08 20:52:00
4:52 PM,69.1,57.9,68,29.96,10.0,ESE,5.8,-,N/A,,Partly Cloudy,120,2013-05-08 21:52:00
5:52 PM,71.1,57.9,63,29.95,10.0,ESE,6.9,-,N/A,,Partly Cloudy,110,2013-05-08 22:52:00
6:52 PM,72.0,59.0,64,29.93,10.0,East,5.8,-,N/A,,Partly Cloudy,100,2013-05-08 23:52:00
7:52 PM,66.9,57.9,73,29.91,10.0,East,6.9,-,N/A,,Clear,90,2013-05-09 00:52:00
8:52 PM,66.0,57.0,73,29.91,10.0,East,9.2,-,N/A,,Clear,100,2013-05-09 01:52:00
9:52 PM,63.0,55.9,78,29.93,10.0,SE,8.1,-,N/A,,Clear,130,2013-05-09 02:52:00
10:52 PM,61.0,55.9,83,29.94,10.0,SE,6.9,-,N/A,,Clear,140,2013-05-09 03:52:00
11:52 PM,64.0,55.0,73,29.95,10.0,SSE,9.2,-,N/A,,Partly Cloudy,160,2013-05-09 04:52:00